SCP
0 0 0 0 0 0 0 0 0 0 0 0 0 0 0 0 0 0 0 0 0 0 0 0 0 0 0 0 1 1 1 1 1 1 1 1 1 1
0 0 0 0 0 0 0 0 0 0 0 0 0 0 0 0 0 0 0 0 0 0 0 0 0 0 0 0 0 1 1 1 1 0 0 0 0 1
0 0 0 0 0 0 0 0 0 0 0 0 0 0 0 0 0 0 0 0 0 0 0 0 0 0 0 0 0 0 0 0 0 0 0 0 0 0
0 0 0 0 0 0 0 0 0 0 0 0 0 0 0 0 0 0 0 0 0 0 0 0 0 0 0 0 0 0 0 0 0 0 0 0 0 0
0 0 0 0 0 0 0 0 0 0 0 0 0 0 0 0 0 0 0 0 0 0 0 0 0 0 0 0 0 0 0 0 0 0 0 0 0 0
0 0 0 0 0 0 0 0 0 0 0 0 0 0 0 0 0 0 1 0 0 0 0 0 0 0 0 0 0 0 0 0 0 0 0 0 0 0
0 0 0 0 0 0 0 0 0 0 0 0 0 0 0 0 0 0 1 0 0 0 0 0 0 0 0 0 0 0 0 0 0 0 0 0 0 0
0 0 0 0 0 0 0 0 0 0 0 0 0 0 0 0 0 0 0 0 0 0 0 0 0 0 0 0 0 0 0 0 0 0 0 0 0 0
0 0 0 0 0 0 0 0 0 0 0 0 0 0 0 0 0 0 0 0 0 0 0 0 0 0 0 0 0 0 0 0 0 0 0 0 0 0
0 0 0 0 0 0 0 0 0 0 0 0 0 0 0 0 0 0 0 0 0 0 0 0 0 0 0 0 0 0 0 0 0 0 0 0 0 0
0 0 0 0 0 0 0 0 0 0 0 0 0 0 0 0 0 0 0 0 0 0 0 0 0 0 0 0 0 0 0 0 0 0 0 0 0 0
0 0 0 0 0 0 0 0 0 0 0 0 0 0 0 0 0 0 0 0 0 0 0 0 0 0 0 0 0 0 0 0 0 0 0 0 0 0
0 0 0 0 0 0 0 0 0 0 0 0 0 0 0 0 0 0 0 0 0 0 0 0 0 0 0 0 0 0 0 0 0 0 0 0 0 0
0 0 0 0 0 0 0 0 0 0 0 0 0 0 0 0 0 0 0 0 0 0 0 0 0 0 0 0 0 0 0 0 0 0 0 0 0 0
0 0 0 0 0 0 0 0 0 0 0 0 0 0 0 0 0 0 0 0 0 0 0 0 0 0 0 0 0 0 0 0 0 0 0 0 0 0
0 0 0 0 0 0 0 0 0 0 0 0 0 0 0 0 0 0 0 0 0 0 0 0 0 0 0 0 0 0 0 0 0 0 0 0 0 0
0 0 0 0 0 0 0 0 0 0 0 0 0 0 0 0 0 0 0 0 0 0 0 0 0 0 0 0 0 0 0 0 0 0 0 0 0 0
0 0 0 0 0 0 0 0 0 0 0 0 0 0 0 0 0 0 0 0 0 0 0 0 0 0 0 0 0 0 0 0 0 0 0 0 0 0
0 0 0 0 0 0 0 0 0 0 0 0 0 0 0 0 0 0 0 0 0 0 0 0 0 0 0 0 0 0 0 0 0 0 0 0 0 0
0 0 0 0 0 0 0 0 0 0 0 0 0 0 0 0 0 0 0 0 0 0 0 0 0 0 0 0 0 0 0 0 0 0 0 0 0 0
0 0 0 0 0 0 0 0 0 0 0 0 0 0 0 0 0 0 0 0 0 0 0 0 0 0 0 0 0 0 0 0 0 0 0 0 0 0
0 0 0 0 0 0 0 0 0 0 0 0 0 0 0 0 0 0 0 0 0 0 0 0 0 0 0 0 0 0 0 0 0 0 0 0 0 0
0 0 0 0 0 0 0 0 0 0 0 0 0 0 0 0 0 0 0 0 0 0 0 0 0 0 0 0 0 0 0 0 0 0 0 0 0 0
Wind_Speed
2 2 2 2 2 2 2 2 2 4 5 3 3 3 3 3 5 4 3 7 9 9 9 9 8 7 7 8 8 8 8 7 7 7 7 7 7 7
2 2 2 2 2 2 2 2 2 3 4 3 4 4 4 4 6 4 4 8 8 9 9 8 7 7 7 8 8 7 7 6 6 6 6 6 6 5
2 2 3 3 2 2 2 2 2 2 4 5 3 4 4 4 5 4 4 4 4 8 8 8 7 6 6 6 6 6 5 5 5 5 6 6 6 5
3 3 3 3 3 3 2 3 3 3 4 6 4 3 4 4 4 4 4 3 3 6 7 7 6 6 6 5 5 4 4 4 4 5 5 5 5 4
3 4 4 3 4 3 3 3 3 3 3 4 5 3 3 3 4 4 4 3 3 4 5 6 6 6 6 5 4 4 4 4 4 4 4 5 4 4
4 4 4 4 5 4 4 4 3 3 3 3 4 3 3 3 3 3 3 2 3 3 3 4 5 5 5 5 4 3 3 3 3 3 4 4 4 4
4 4 4 5 7 5 4 4 3 3 3 3 3 3 3 3 3 3 3 3 3 2 1 2 2 2 2 4 4 3 3 3 3 3 4 5 4 3
4 4 5 5 7 8 8 7 5 5 4 4 4 4 5 4 4 3 2 2 3 1 0 2 1 1 2 1 3 3 3 3 3 3 3 5 3 3
4 4 4 5 6 5 7 8 7 7 7 5 5 6 5 5 3 3 2 2 3 2 0 2 1 1 2 2 4 3 3 2 2 3 4 5 4 4
5 5 5 5 5 5 5 5 5 5 6 5 5 6 5 4 3 3 3 2 2 1 1 1 1 1 2 2 3 3 2 2 2 3 5 4 3 4
5 5 5 5 7 7 4 4 4 4 4 5 5 5 5 5 3 1 1 1 2 1 0 1 0 1 2 2 2 3 2 2 3 4 4 2 2 3
4 4 6 6 7 6 3 3 4 4 3 3 3 4 3 3 3 2 2 2 1 2 1 1 1 0 2 2 2 1 1 2 3 3 2 2 2 2
4 4 4 7 7 7 5 3 5 4 2 2 2 2 2 1 1 1 1 2 2 2 1 1 1 1 1 2 2 2 1 0 0 1 2 3 3 2
4 3 4 7 7 6 4 5 5 3 1 1 1 1 1 1 1 1 1 1 1 2 2 1 1 1 1 1 2 2 1 1 1 1 1 2 3 4
3 6 7 7 5 4 5 5 3 2 1 1 2 2 1 1 1 1 1 1 2 1 1 1 1 1 1 1 2 2 2 2 1 1 1 1 2 2
3 5 7 6 4 4 4 3 2 1 1 2 2 1 1 1 0 1 1 1 1 2 2 1 0 1 1 1 1 2 1 1 1 1 1 2 2 1
2 2 2 2 2 2 2 2 1 1 1 1 1 1 1 1 1 1 0 0 1 1 2 1 1 0 0 1 1 1 0 0 0 1 1 2 2 2
2 2 2 2 2 2 2 2 2 1 1 1 1 1 1 1 1 1 0 0 0 1 1 1 1 2 2 2 1 1 1 0 0 1 0 1 3 3
2 2 2 2 2 2 2 2 2 2 1 1 1 1 1 1 1 0 0 0 0 1 1 1 1 0 1 1 3 2 0 0 1 1 1 1 2 3
2 2 2 2 2 2 2 2 2 1 1 1 1 1 1 1 1 1 1 0 1 1 1 1 1 0 1 1 1 2 2 1 0 0 1 1 1 3
2 2 2 2 2 2 2 2 2 1 1 1 1 1 1 1 1 1 1 1 1 1 1 1 1 2 0 1 1 1 2 3 2 1 1 1 1 2
2 2 2 2 2 2 2 2 2 2 1 1 1 1 1 1 1 1 1 1 1 1 1 1 1 1 1 1 1 1 2 3 4 5 3 2 1 1
2 2 2 2 2 2 2 2 2 2 2 1 1 1 1 1 1 1 1 1 0 0 0 1 1 1 1 2 2 1 2 3 3 3 3 5 4 3
Wind_Direction
259 267 276 280 271 267 257 240 244 280 285 281 291 296 295 290 298 298 295 305 308 310 309 302 289 282 283 284 285 284 284 282 285 286 284 280 284 277
260 265 278 286 278 278 263 264 251 250 273 278 279 294 300 301 302 296 288 301 302 306 305 302 290 281 281 280 279 281 281 281 281 280 284 289 294 290
274 268 279 284 276 274 275 274 265 250 267 285 279 289 287 295 300 289 285 287 294 302 303 304 298 288 290 285 281 277 277 278 279 284 286 288 292 290
266 265 273 280 277 273 266 267 264 256 256 278 287 287 278 280 287 285 291 292 287 299 301 303 304 297 289 287 289 286 287 292 289 289 283 290 293 290
262 257 264 268 272 275 271 265 265 268 262 267 282 279 282 289 295 291 288 284 292 298 298 302 303 303 303 291 285 288 288 291 292 294 296 299 294 292
265 259 259 254 256 261 264 261 260 263 264 268 276 280 283 287 288 287 292 292 297 302 304 306 308 307 308 309 306 304 300 299 301 301 312 314 309 297
269 265 263 265 268 266 266 261 254 254 261 267 274 281 283 290 282 272 277 293 299 280 291 304 315 318 316 319 313 307 310 311 305 310 317 318 310 304
273 275 275 269 271 277 278 277 262 251 252 254 263 265 271 272 276 272 277 296 298 289 336 309 332 304 299 296 306 308 312 310 306 313 322 321 319 322
265 270 278 279 283 272 275 279 270 262 251 246 250 258 263 265 267 268 265 266 267 267 53 300 327 301 298 302 305 305 311 308 306 317 319 314 322 322
264 262 262 271 273 276 273 274 268 263 258 248 246 255 260 260 244 245 254 281 293 294 140 256 309 307 314 306 301 288 293 294 299 306 306 305 316 325
272 270 267 268 278 286 276 271 276 280 280 268 272 277 282 281 274 246 242 243 284 291 188 181 272 325 315 308 309 315 305 308 312 309 306 316 331 338
283 279 275 276 282 288 264 259 268 277 290 300 303 309 303 299 299 266 227 219 252 273 245 181 207 312 316 309 325 333 314 293 308 312 321 334 334 354
290 290 284 288 289 290 285 258 266 279 277 281 295 311 326 329 317 301 263 221 218 246 242 201 231 241 240 297 318 326 329 328 341 330 340 347 347 344
284 286 289 296 294 292 291 290 288 289 277 288 299 301 306 312 313 305 291 276 241 250 249 221 219 218 212 271 294 319 347 357 24 353 354 342 338 333
293 302 308 306 302 297 300 304 297 282 276 288 284 286 286 288 318 359 11 23 12 347 319 249 209 217 209 231 278 298 325 342 14 51 7 345 327 333
310 313 316 316 316 316 316 310 303 288 274 269 285 302 322 342 331 351 342 2 13 2 8 3 253 184 197 256 257 286 298 287 337 346 338 332 325 314
327 338 348 347 349 344 341 338 339 328 304 310 300 310 319 318 313 327 330 61 50 360 355 8 27 51 253 250 256 261 259 295 269 328 348 332 321 312
344 344 336 334 331 327 331 344 352 342 324 324 315 284 279 292 316 347 356 41 7 348 333 328 356 18 28 16 313 224 201 255 303 323 336 328 318 319
353 338 330 325 324 325 326 328 335 338 341 340 329 306 290 290 297 305 335 9 357 335 323 320 323 63 48 351 342 347 212 304 320 329 313 289 298 307
344 328 324 327 327 327 327 328 333 349 337 316 311 310 303 286 278 289 303 313 303 315 330 344 345 322 214 229 289 327 330 280 221 298 332 334 317 320
330 326 324 324 325 327 330 329 324 323 324 314 303 293 298 289 280 278 286 287 296 309 313 320 318 327 345 90 75 360 357 355 343 315 319 338 339 344
317 315 317 319 320 319 320 319 317 310 309 314 310 304 297 276 268 267 272 268 281 306 320 336 357 14 62 104 94 15 359 2 8 6 355 312 265 288
310 309 308 311 312 312 306 304 303 300 297 293 298 299 289 282 276 259 245 239 248 58 64 34 29 45 71 89 91 61 26 7 6 14 14 10 16 14